Theta_e
351 353 353 354 353 351 350 350 349 349 351 353 351 351 350 349 349 349 351 351 349 349 347 346 347 352 353 354 353 355 356 355 353
347 351 352 353 353 352 351 350 351 351 352 354 353 350 352 352 351 350 348 349 351 350 350 348 349 350 351 351 352 354 356 355 356
342 344 349 351 352 352 351 351 351 351 352 354 353 351 352 352 352 352 350 350 352 352 350 351 350 350 349 349 352 353 355 353 355
338 339 342 348 351 351 352 352 352 352 352 353 353 352 352 352 351 352 352 351 352 354 354 353 354 351 351 348 351 353 355 355 353
337 338 342 345 350 352 352 352 352 352 352 352 353 353 354 353 353 352 352 353 352 353 354 355 355 354 353 351 350 353 355 355 352
335 336 339 345 347 352 353 352 353 352 352 352 351 352 353 353 353 353 353 353 353 353 354 355 355 355 354 353 350 350 353 355 355
339 337 337 343 347 349 353 353 355 354 352 352 350 350 351 353 355 354 353 354 354 354 354 355 355 355 355 354 352 349 349 350 353
341 343 343 341 347 348 351 353 355 355 353 353 351 351 351 354 355 355 355 355 355 355 355 355 356 356 355 354 353 349 349 349 349
342 344 345 346 346 343 347 350 354 356 356 354 354 354 354 354 357 357 357 357 356 356 356 356 356 356 356 355 352 348 346 347 348
342 343 344 347 347 349 345 346 350 355 357 355 355 357 356 356 357 358 358 357 357 357 357 357 357 357 356 355 355 352 349 347 347
336 338 341 345 347 346 347 346 346 351 353 356 357 358 358 357 358 359 358 358 358 359 358 358 358 357 357 356 356 354 352 349 349
332 332 334 341 344 346 348 349 345 348 351 354 356 358 358 358 358 359 359 359 359 358 358 358 358 358 358 358 357 355 353 351 350
326 327 329 340 345 349 353 352 348 347 352 355 358 358 358 358 358 359 359 359 359 358 358 357 356 356 357 357 358 357 354 352 351
321 321 322 335 346 351 356 349 347 352 353 356 357 356 355 356 357 359 359 359 359 359 358 357 358 357 357 357 357 357 356 354 352
321 322 321 325 342 349 355 350 348 357 357 354 356 355 355 357 357 356 357 358 359 359 359 359 360 359 359 358 360 358 358 356 354
320 322 321 322 330 344 350 356 351 354 355 355 355 356 357 357 357 357 356 358 359 359 359 359 360 360 360 359 359 361 361 359 357
320 320 323 323 323 328 335 344 352 355 356 355 356 357 357 358 359 358 357 358 359 359 359 359 358 359 358 359 359 360 361 362 360
319 320 322 323 324 323 324 327 335 344 355 354 354 356 357 357 358 358 359 358 358 358 358 358 359 358 359 359 361 361 362 363 365
317 319 321 323 325 324 324 325 327 330 337 352 358 357 355 355 354 356 356 357 357 355 354 357 357 359 360 361 361 362 362 362 362
316 319 320 322 324 324 325 326 325 324 326 332 345 352 356 358 358 358 356 358 359 361 355 355 356 357 357 359 361 361 360 360 360
Wind_Speed
21 22 22 24 25 31 34 37 39 37 37 36 35 33 31 30 29 27 25 21 19 17 15 13 13 14 14 12 11 10 9 8 7
18 20 23 25 26 33 35 37 39 39 36 36 36 37 32 30 30 30 27 24 21 22 17 13 12 15 15 15 13 13 11 10 9
16 18 21 22 23 33 36 38 39 40 39 38 39 38 35 34 32 31 31 25 24 21 19 18 14 14 15 15 14 14 14 12 12
17 17 17 20 22 33 38 36 36 39 39 39 38 38 37 35 34 32 30 28 26 23 20 19 18 16 15 16 16 15 15 14 13
17 19 15 16 19 26 32 37 37 39 40 39 39 38 37 37 35 33 31 29 28 24 22 21 21 19 17 17 17 16 16 16 15
3 5 10 14 17 19 28 34 35 38 39 39 39 38 38 37 36 34 33 32 29 27 24 23 22 21 21 20 19 19 18 18 17
5 4 6 11 15 18 26 31 33 35 38 39 38 38 38 36 35 35 36 34 31 28 28 25 24 24 23 22 21 21 20 20 19
6 6 4 4 11 14 19 27 30 34 37 36 38 36 38 37 36 35 34 32 32 30 29 27 26 25 24 23 23 24 23 22 22
8 7 7 8 7 11 15 25 31 34 36 38 38 37 37 36 34 35 35 32 31 30 29 29 26 27 26 26 27 27 29 27 23
9 8 9 10 10 11 16 23 28 33 36 35 38 36 37 36 36 35 35 34 32 31 31 29 29 28 27 29 29 29 31 32 29
11 11 12 12 12 14 18 20 27 30 33 35 34 34 34 35 35 35 33 32 32 32 31 30 30 28 29 28 30 32 33 34 31
13 14 14 15 18 19 20 22 25 28 32 34 35 36 36 36 36 33 32 32 32 31 30 29 30 29 28 29 30 31 33 33 27
16 16 17 20 22 22 21 23 27 30 33 32 35 39 39 36 34 34 34 32 31 31 29 29 28 30 30 31 31 31 33 33 27
17 18 20 23 17 17 20 18 29 28 31 34 37 31 32 32 32 31 32 31 30 30 29 26 28 26 27 28 27 29 30 33 31
14 16 21 23 16 14 15 9 20 21 24 24 27 28 30 30 31 30 28 28 27 26 25 26 24 25 25 25 25 28 29 32 34
14 17 19 22 20 14 17 13 10 16 19 23 26 26 27 27 27 28 26 27 25 25 25 25 25 25 24 23 24 24 27 30 30
12 17 18 21 19 19 20 20 14 8 9 17 22 24 24 24 24 24 25 24 25 25 26 26 25 24 23 22 22 21 20 21 27
11 14 16 19 20 20 21 20 18 14 9 15 20 22 22 22 22 23 22 23 23 24 24 25 24 23 22 21 20 21 21 19 17
13 13 13 14 16 18 22 21 21 20 18 11 10 14 16 18 18 18 18 19 17 16 12 19 22 20 20 20 18 10 17 21 20
13 10 10 12 12 16 18 19 21 23 21 17 10 15 5 12 16 17 16 12 5 6 9 21 18 27 26 21 14 14 18 16 16
Wind_Direction
204 204 207 204 202 200 199 201 201 201 196 199 200 203 205 205 207 212 218 220 226 224 227 230 229 222 222 221 220 216 216 214 211
202 202 205 206 203 203 201 200 201 199 198 199 197 202 204 207 209 214 219 224 226 231 230 232 231 225 223 224 219 220 222 225 225
211 213 208 208 204 203 203 202 202 201 202 200 199 200 205 209 213 214 220 222 225 227 228 227 230 225 222 218 215 215 221 229 231
222 223 210 209 205 205 205 203 201 202 202 204 205 203 203 207 210 213 217 221 226 226 224 223 226 224 222 220 219 216 218 226 237
238 226 215 206 206 203 202 203 202 201 201 203 205 204 201 204 207 209 213 220 224 224 223 221 225 225 223 224 222 220 220 223 231
271 278 247 216 203 198 203 203 204 203 203 203 202 202 203 205 208 210 212 216 218 220 221 221 223 223 223 225 225 224 226 228 231
345 319 297 225 208 204 201 203 201 203 204 204 201 199 201 202 203 204 208 213 214 214 216 219 221 222 223 225 226 227 227 230 233
314 310 320 240 229 214 208 204 205 203 206 203 202 197 200 200 201 203 208 209 209 211 214 218 222 223 225 226 226 229 229 230 234
322 324 306 296 268 247 222 212 207 204 205 204 201 197 200 199 200 201 205 207 208 209 212 215 217 221 223 225 229 231 230 228 232
327 316 307 302 288 269 251 223 212 209 206 203 200 199 197 197 198 201 203 204 206 208 210 213 217 219 221 225 228 231 232 234 232
327 328 317 306 293 276 258 245 220 211 206 203 201 202 199 198 198 202 203 202 205 207 210 210 214 218 222 226 229 232 234 234 233
341 331 315 302 289 278 263 247 228 207 205 200 199 200 200 199 197 198 200 202 205 207 209 211 216 219 221 225 231 233 236 235 233
344 337 329 315 305 292 270 240 229 203 200 198 199 199 198 198 197 195 197 200 201 204 208 212 216 220 222 226 231 235 237 235 230
343 347 340 331 324 312 305 235 215 195 196 202 202 199 198 198 199 199 198 198 200 202 205 211 217 220 222 225 230 235 237 237 226
348 353 358 355 347 348 328 250 207 187 196 199 196 199 197 195 196 198 199 201 203 205 206 211 216 219 226 227 230 234 235 237 232
340 352 357 3 1 26 22 10 195 189 195 193 195 195 194 192 195 197 198 197 201 202 205 213 214 217 224 228 228 231 235 238 239
337 343 349 356 18 31 31 30 43 39 186 197 192 192 188 186 189 195 200 198 202 207 208 211 218 214 218 220 223 224 224 225 233
331 331 346 1 12 17 28 30 37 35 7 189 188 189 183 182 186 191 197 205 204 210 217 215 213 217 216 216 219 221 222 220 216
331 323 345 4 9 13 12 25 28 31 24 43 146 165 176 178 179 180 195 198 213 228 235 223 233 226 216 220 223 207 213 224 227
324 339 357 7 5 13 9 19 20 16 21 30 53 77 107 136 156 172 180 184 208 252 232 244 238 242 248 232 218 224 237 233 234